{"data":{"norad_id":63669,"epoch":"2026-09-20T18:59:58.390656Z","epoch_age_seconds":127415,"freshness":"FRESH","line1":"1 63669U 25085F   26263.79164804  .00176488  00000+0  13439-2 0  9993","line2":"2 63669  42.9999 182.6449 0002243 240.8551 119.2093 15.70946084 81574","mean_motion":15.70946084,"eccentricity":0.0002243,"inclination_deg":42.9999,"raan_deg":182.6449,"arg_perigee_deg":240.8551,"mean_anomaly_deg":119.2093,"bstar":0.0013439,"rev_number":8157,"period_min":91.664508073595,"perigee_km":354.68136073974,"apogee_km":357.70238067114,"semimajor_km":6734.3288707054,"source":"CELESTRAK","updated_at":"2026-09-21T09:00:35.057801Z"}}